• In India
  • List of Countries
  • For 7 days
  • Water Temperature
  • Satellite Maps
  • Weather Map
  • Weather Widgets
  • user-avatar
    Login

    Hourly Weather Hobart

    Today, 26 September, Tuesday

    Time Temperature Precipitation Wind Pressure Humidity
    00:00 +1°C° 0 mm 4 mps 743 mmHg 94%
    01:00 +1°C° 0 mm 4 mps 744 mmHg 94%
    02:00 0°C° 0 mm 4 mps 744 mmHg 94%
    03:00 0°C° 0 mm 4 mps 744 mmHg 94%
    04:00 +1°C° 0 mm 3 mps 744 mmHg 95%
    05:00 +2°C° 0 mm 3 mps 744 mmHg 94%
    06:00 +2°C° 0 mm 3 mps 745 mmHg 93%
    07:00 +3°C° 0 mm 3 mps 745 mmHg 91%
    08:00 +5°C° 0 mm 3 mps 745 mmHg 81%
    09:00 +7°C° 0 mm 4 mps 746 mmHg 71%
    10:00 +10°C° 0 mm 3 mps 746 mmHg 57%
    11:00 +11°C° 0 mm 3 mps 746 mmHg 56%
    12:00 +11°C° 0 mm 3 mps 746 mmHg 55%
    13:00 +11°C° 0 mm 3 mps 746 mmHg 54%
    14:00 +11°C° 0 mm 3 mps 746 mmHg 54%
    15:00 +11°C° 0 mm 3 mps 746 mmHg 55%
    16:00 +13°C° 0 mm 2 mps 746 mmHg 56%
    17:00 +10°C° 0 mm 2 mps 746 mmHg 65%
    18:00 +8°C° 0 mm 2 mps 746 mmHg 74%
    19:00 +6°C° 0 mm 2 mps 746 mmHg 83%
    20:00 +5°C° 0 mm 2 mps 747 mmHg 85%
    21:00 +5°C° 0 mm 2 mps 747 mmHg 88%
    22:00 +4°C° 0 mm 2 mps 747 mmHg 91%
    23:00 +3°C° 0 mm 2 mps 747 mmHg 92%

    Tomorrow, 27 September, Wednesday

    Time Temperature Precipitation Wind Pressure Humidity
    00:00 +3°C° 0 mm 2 mps 746 mmHg 94%
    01:00 +2°C° 0 mm 2 mps 746 mmHg 96%
    02:00 +2°C° 0 mm 2 mps 746 mmHg 96%
    03:00 +2°C° 0 mm 2 mps 746 mmHg 96%
    04:00 +2°C° 0 mm 2 mps 745 mmHg 96%
    05:00 +2°C° 0 mm 2 mps 745 mmHg 93%
    06:00 +3°C° 0 mm 2 mps 745 mmHg 90%
    07:00 +5°C° 0 mm 1 mps 745 mmHg 87%
    08:00 +7°C° 0 mm 2 mps 744 mmHg 73%
    09:00 +10°C° 0 mm 2 mps 744 mmHg 58%
    10:00 +14°C° 0 mm 2 mps 743 mmHg 44%
    11:00 +14°C° 0 mm 3 mps 742 mmHg 42%
    12:00 +15°C° 0 mm 4 mps 741 mmHg 40%
    13:00 +17°C° 0 mm 4 mps 740 mmHg 38%
    14:00 +14°C° 0.4 mm 5 mps 739 mmHg 53%
    15:00 +12°C° 0.4 mm 5 mps 738 mmHg 69%
    16:00 +9°C° 0.4 mm 5 mps 737 mmHg 85%
    17:00 +8°C° 0.7 mm 5 mps 736 mmHg 88%
    18:00 +8°C° 0.7 mm 5 mps 735 mmHg 91%
    19:00 +7°C° 0.7 mm 5 mps 735 mmHg 94%
    20:00 +7°C° 0 mm 4 mps 734 mmHg 94%
    21:00 +6°C° 0 mm 4 mps 733 mmHg 93%
    22:00 +6°C° 0 mm 4 mps 732 mmHg 92%
    23:00 +6°C° 0 mm 4 mps 732 mmHg 92%

    Day after tomorrow, 28 September, Thursday

    Time Temperature Precipitation Wind Pressure Humidity
    00:00 +6°C° 0 mm 4 mps 731 mmHg 92%
    01:00 +6°C° 0 mm 4 mps 730 mmHg 91%
    02:00 +7°C° 0.1 mm 4 mps 730 mmHg 91%
    03:00 +7°C° 0.1 mm 4 mps 729 mmHg 91%
    04:00 +8°C° 0.1 mm 4 mps 729 mmHg 91%
    05:00 +8°C° 0.2 mm 5 mps 730 mmHg 89%
    06:00 +8°C° 0.2 mm 7 mps 731 mmHg 87%
    07:00 +7°C° 0.2 mm 8 mps 732 mmHg 84%
    08:00 +7°C° 0.1 mm 8 mps 733 mmHg 83%
    09:00 +6°C° 0.1 mm 7 mps 734 mmHg 81%
    10:00 +6°C° 0.1 mm 7 mps 735 mmHg 79%
    11:00 +8°C° 0 mm 7 mps 735 mmHg 73%
    12:00 +8°C° 0 mm 6 mps 736 mmHg 67%
    13:00 +9°C° 0 mm 6 mps 736 mmHg 62%
    14:00 +9°C° 0 mm 6 mps 736 mmHg 61%
    15:00 +9°C° 0 mm 6 mps 736 mmHg 60%
    16:00 +10°C° 0 mm 6 mps 736 mmHg 60%
    17:00 +9°C° 0 mm 6 mps 736 mmHg 64%
    18:00 +8°C° 0 mm 6 mps 736 mmHg 69%
    19:00 +7°C° 0 mm 6 mps 737 mmHg 73%
    20:00 +7°C° 0.2 mm 6 mps 737 mmHg 77%
    21:00 +7°C° 0.2 mm 6 mps 737 mmHg 80%
    22:00 +7°C° 0.2 mm 6 mps 738 mmHg 84%
    23:00 +5°C° 0.1 mm 6 mps 738 mmHg 86%

    29 September, Friday

    Time Temperature Precipitation Wind Pressure Humidity
    00:00 +5°C° 0.1 mm 5 mps 738 mmHg 89%
    01:00 +3°C° 0.1 mm 5 mps 738 mmHg 91%
    02:00 +4°C° 0 mm 4 mps 738 mmHg 91%
    03:00 +4°C° 0 mm 4 mps 738 mmHg 91%
    04:00 +3°C° 0 mm 4 mps 738 mmHg 91%
    05:00 +4°C° 0 mm 4 mps 739 mmHg 90%
    06:00 +5°C° 0 mm 4 mps 739 mmHg 88%
    07:00 +5°C° 0 mm 4 mps 739 mmHg 87%
    08:00 +6°C° 0.1 mm 5 mps 739 mmHg 81%
    09:00 +7°C° 0.1 mm 5 mps 739 mmHg 75%
    10:00 +8°C° 0.1 mm 6 mps 739 mmHg 68%
    11:00 +9°C° 0 mm 6 mps 738 mmHg 63%
    12:00 +10°C° 0 mm 6 mps 737 mmHg 58%
    13:00 +11°C° 0 mm 6 mps 737 mmHg 53%
    14:00 +10°C° 0.1 mm 6 mps 736 mmHg 56%
    15:00 +10°C° 0.1 mm 6 mps 735 mmHg 59%
    16:00 +10°C° 0.1 mm 6 mps 734 mmHg 63%
    17:00 +9°C° 0.1 mm 6 mps 734 mmHg 69%
    18:00 +8°C° 0.1 mm 6 mps 733 mmHg 75%
    19:00 +7°C° 0.1 mm 6 mps 733 mmHg 81%
    20:00 +7°C° 0.4 mm 6 mps 732 mmHg 82%
    21:00 +6°C° 0.4 mm 7 mps 732 mmHg 84%
    22:00 +6°C° 0.4 mm 8 mps 731 mmHg 86%
    23:00 +5°C° 0.8 mm 8 mps 731 mmHg 87%

    30 September, Saturday

    Time Temperature Precipitation Wind Pressure Humidity
    00:00 +4°C° 0.8 mm 8 mps 732 mmHg 89%
    01:00 +2°C° 0.8 mm 8 mps 732 mmHg 91%
    02:00 +1°C° 0.3 mm 9 mps 733 mmHg 88%
    03:00 +1°C° 0.3 mm 9 mps 734 mmHg 84%
    04:00 0°C° 0.3 mm 9 mps 735 mmHg 81%
    05:00 0°C° 0.1 mm 9 mps 736 mmHg 77%
    06:00 +1°C° 0.1 mm 9 mps 737 mmHg 73%
    07:00 +1°C° 0.1 mm 9 mps 738 mmHg 69%
    08:00 +2°C° 0.1 mm 9 mps 739 mmHg 66%
    09:00 +3°C° 0.1 mm 9 mps 740 mmHg 62%
    10:00 +5°C° 0.1 mm 10 mps 741 mmHg 58%
    11:00 +6°C° 0.1 mm 9 mps 741 mmHg 56%
    12:00 +6°C° 0.1 mm 9 mps 742 mmHg 54%
    13:00 +7°C° 0.1 mm 9 mps 742 mmHg 53%
    14:00 +7°C° 0 mm 8 mps 743 mmHg 56%
    15:00 +7°C° 0 mm 8 mps 743 mmHg 59%
    16:00 +7°C° 0 mm 8 mps 743 mmHg 62%
    17:00 +6°C° 0 mm 7 mps 743 mmHg 69%
    18:00 +5°C° 0 mm 6 mps 744 mmHg 76%
    19:00 +3°C° 0 mm 5 mps 744 mmHg 83%
    20:00 +5°C° 0 mm 5 mps 744 mmHg 84%
    21:00 +5°C° 0 mm 5 mps 743 mmHg 85%
    22:00 +5°C° 0 mm 5 mps 743 mmHg 86%
    23:00 +6°C° 0 mm 5 mps 743 mmHg 85%

    1 October, Sunday

    Time Temperature Precipitation Wind Pressure Humidity
    00:00 +7°C° 0 mm 6 mps 743 mmHg 83%
    01:00 +8°C° 0 mm 7 mps 743 mmHg 81%
    02:00 +8°C° 0 mm 7 mps 743 mmHg 83%
    03:00 +7°C° 0 mm 6 mps 744 mmHg 84%
    04:00 +7°C° 0 mm 6 mps 744 mmHg 86%
    05:00 +7°C° 0 mm 6 mps 745 mmHg 85%
    06:00 +8°C° 0 mm 6 mps 745 mmHg 84%
    07:00 +8°C° 0 mm 5 mps 746 mmHg 82%
    08:00 +8°C° 0 mm 5 mps 746 mmHg 81%
    09:00 +9°C° 0 mm 5 mps 747 mmHg 80%
    10:00 +9°C° 0 mm 5 mps 747 mmHg 79%
    11:00 +10°C° 0 mm 5 mps 747 mmHg 77%
    12:00 +10°C° 0 mm 5 mps 747 mmHg 76%
    13:00 +10°C° 0 mm 6 mps 747 mmHg 74%
    14:00 +10°C° 0 mm 6 mps 747 mmHg 72%
    15:00 +11°C° 0 mm 6 mps 748 mmHg 70%
    16:00 +11°C° 0 mm 6 mps 748 mmHg 68%
    17:00 +10°C° 0 mm 5 mps 748 mmHg 74%
    18:00 +9°C° 0 mm 5 mps 749 mmHg 80%
    19:00 +8°C° 0 mm 4 mps 750 mmHg 86%
    20:00 +7°C° 0 mm 4 mps 750 mmHg 88%
    21:00 +7°C° 0 mm 4 mps 750 mmHg 90%
    22:00 +6°C° 0 mm 4 mps 751 mmHg 92%
    23:00 +6°C° 0 mm 4 mps 751 mmHg 92%
    Show more